Spokane Fairchild, WA

9:53 PM PDT on August 22, 2017 (GMT -0700)
Fairchild Air Force Base

Weather History for KSKA - July, 2013

Change the Weather History Date:

Monday, July 22, 2013

  Actual Average Record
Temperature  
Mean Temperature 74 °F -  
Max Temperature 90 °F 84 °F 100 °F (2006)
Min Temperature 59 °F 56 °F 46 °F (2011)
Cooling Degree Days 10    
Growing Degree Days 24 (Base 50)    
Moisture  
Dew Point 43 °F    
Average Humidity 32    
Maximum Humidity 58    
Minimum Humidity 18    
Precipitation  
Precipitation 0.00 in - - ()
Sea Level Pressure  
Sea Level Pressure 29.86 in    
Wind  
Wind Speed 8 mph (South)    
Max Wind Speed 16 mph    
Max Gust Speed 21 mph    
Visibility 10 miles    
Events Rain    
Averages and records for this station are not official NWS values.
T = Trace of Precipitation, MM = Missing Value Source: NWS Daily Summary

Daily Weather History Graph

Daily Weather History Graph

Search for Another Location

Airport or City:

Trip Planner

Search our weather history database for the weather conditions in past years. The results will help you decide how hot, cold, wet, or windy it might be!

Date:

Astronomy

Jul. 22, 2013 Rise Set
Actual Time 5:16 AM PDT 8:37 PM PDT
Civil Twilight 4:38 AM PDT 9:14 PM PDT
Nautical Twilight 3:49 AM PDT 10:03 PM PDT
Astronomical Twilight 2:44 AM PDT 11:07 PM PDT
Moon 8:18 PM PDT (7/22) 5:23 AM PDT (7/22)
Length of Visible Light 16h 36m
Length of Day
15h 20m
Full, 100% of the Moon is Illuminated
Jul 22
Full
Jul 29
Last Quarter
Aug 6
New
Aug 14
First Quarter
Aug 20
Full

Hourly Weather History & Observations

Time (PDT) Temp. Dew Point Humidity Pressure Visibility Wind Dir Wind Speed Gust Speed Precip Events Conditions
12:58 AM 71.2 °F 39.6 °F 32% 29.76 in 10.0 mi SSE 2.3 mph - N/A   Clear
1:58 AM 65.7 °F 40.5 °F 40% 29.75 in 10.0 mi SE 6.9 mph - N/A   Clear
2:58 AM 61.5 °F 41.2 °F 47% 29.77 in 10.0 mi South 6.9 mph - N/A   Clear
3:58 AM 59.4 °F 41.5 °F 52% 29.78 in 10.0 mi South 6.9 mph - N/A   Clear
4:58 AM 59.7 °F 42.4 °F 53% 29.79 in 10.0 mi SSE 8.1 mph - N/A   Clear
5:58 AM 59.9 °F 45.0 °F 58% 29.81 in 10.0 mi SSE 5.8 mph - N/A   Clear
6:58 AM 63.3 °F 46.6 °F 54% 29.83 in 10.0 mi South 12.7 mph - N/A   Clear
7:58 AM 67.6 °F 48.2 °F 50% 29.85 in 10.0 mi SW 5.8 mph - N/A   Clear
8:58 AM 71.8 °F 47.5 °F 42% 29.87 in 10.0 mi South 12.7 mph - N/A   Clear
9:58 AM 75.4 °F 47.1 °F 37% 29.88 in 10.0 mi South 15.0 mph - N/A   Clear
10:58 AM 79.7 °F 47.5 °F 32% 29.88 in 10.0 mi SSW 12.7 mph 17.3 mph N/A   Clear
11:58 AM 82.6 °F 46.2 °F 28% 29.88 in 10.0 mi South 16.1 mph 19.6 mph N/A   Clear
12:47 PM 84.2 °F 46.4 °F 27% 29.93 in 10.0 mi South 13.8 mph 17.3 mph N/A Rain Heavy Rain
12:58 PM 85.8 °F 46.0 °F 25% 29.88 in 10.0 mi SW 11.5 mph - N/A Rain Light Rain
12:59 PM 86.0 °F 46.4 °F 25% 29.93 in 10.0 mi SSW 10.4 mph 17.3 mph N/A   Clear
1:17 PM 86.0 °F 46.4 °F 25% 29.93 in 10.0 mi SW 13.8 mph - N/A   Clear
1:58 PM 88.0 °F 44.4 °F 22% 29.88 in 10.0 mi South 11.5 mph 18.4 mph 0.00 in   Clear
2:58 PM 89.4 °F 43.7 °F 20% 29.88 in 10.0 mi South 10.4 mph 20.7 mph N/A   Clear
3:32 PM 89.6 °F 41.0 °F 18% 29.93 in 10.0 mi West 13.8 mph 18.4 mph N/A   Clear
3:58 PM 90.0 °F 41.7 °F 19% 29.88 in 10.0 mi South 9.2 mph 19.6 mph N/A   Clear
4:58 PM 90.1 °F 41.7 °F 18% 29.88 in 10.0 mi SSW 4.6 mph - N/A   Clear
5:58 PM 89.4 °F 40.6 °F 18% 29.87 in 10.0 mi SSW 12.7 mph - N/A   Clear
6:58 PM 88.0 °F 39.9 °F 18% 29.86 in 10.0 mi South 9.2 mph - N/A   Clear
7:58 PM 82.4 °F 42.4 °F 24% 29.87 in 10.0 mi SSW 8.1 mph - N/A   Clear
8:58 PM 77.4 °F 40.5 °F 27% 29.88 in 10.0 mi SSW 8.1 mph - N/A   Clear
9:58 PM 75.2 °F 38.5 °F 27% 29.89 in 10.0 mi South 5.8 mph - N/A   Clear
10:58 PM 74.5 °F 39.6 °F 28% 29.89 in 10.0 mi South 4.6 mph - N/A   Clear
11:58 PM 69.4 °F 39.4 °F 33% 29.90 in 10.0 mi SSW 4.6 mph - N/A   Clear